Regional Weather Roundup
Issued by NWS

Home | Current Version | Previous Version | Text Only | Print | Product List | Glossary Off
Versions: 1 2 3 4 5 6 7 8 9 10 11 12 13 14 15 16 17 18 19 20 21 22 23 24 25 26 27 28 29 30 31 32 33 34 35 36 37 38 39 40 41 42 43 44 45 46 47 48 49 50

000
ASUS43 KBIS 240302
RWRND

NORTH DAKOTA REGIONAL WEATHER ROUNDUP
NATIONAL WEATHER SERVICE BISMARCK ND
1000 PM CDT SUN APR 23 2017

NOTE: "FAIR" INDICATES FEW OR NO CLOUDS BELOW 12,000 FEET WITH NO
SIGNIFICANT WEATHER AND/OR OBSTRUCTIONS TO VISIBILITY.


NDZ001>003-009>011-017-240400-
NORTHWEST NORTH DAKOTA

CITY           SKY/WX    TMP DP  RH WIND       PRES   REMARKS
WILLISTON      CLOUDY    31  27  85 E15       29.85F
MINOT          CLOUDY    31  28  89 E16       29.90F WCI  20
MINOT AFB      CLOUDY    31  26  83 E15       29.90F WCI  20
$$

NDZ018>021-031>035-040>046-240400-
SOUTHWEST NORTH DAKOTA

CITY           SKY/WX    TMP DP  RH WIND       PRES   REMARKS
BISMARCK       CLOUDY    33  31  92 E18       29.86R
DICKINSON      CLOUDY    31  30  96 E21       29.74F FOG     WCI  18
GARRISON         N/A     28  26  92 E18G28    29.89R WCI  15
HETTINGER ARPT CLOUDY    37  33  85 E20G26    29.73S
$$

NDZ004>008-012>016-024-026-027-054-240400-
NORTHEAST NORTH DAKOTA

CITY           SKY/WX    TMP DP  RH WIND       PRES   REMARKS
GRAND FORKS    LGT SNOW  33  30  88 NE20      29.99F FOG
GRND FRKS AFB  CLOUDY    32  28  86 E17       29.98F
DEVILS LAKE    CLOUDY    29  26  89 E21       29.95F WCI  16
$$

NDZ022-023-025-028>030-036>039-047>053-240400-
SOUTHEAST NORTH DAKOTA

CITY           SKY/WX    TMP DP  RH WIND       PRES   REMARKS
FARGO          PTCLDY    38  32  79 E15G24    29.89F
JAMESTOWN      CLOUDY    32  29  88 E16G29    29.86F
$$





USA.gov is the U.S. government's official web portal to all federal, state and local government web resources and services.